Station 46224 - Oceanside Offshore, CA (045) Image indicating link to RSS feed of recent meteorological observations for station 46224


Conditions at 46224 as of
(12:26 pm PDT)
1926 GMT on 06/12/2024:
     

Click on the graph icon in the table below to see a time series plot of the last five days of that observation.

5-day plot - Wave Height Wave Height (WVHT): 2.6 ft
5-day plot - Dominant Wave Period Dominant Wave Period (DPD): 13 sec
5-day plot - Average Wave Period Average Period (APD):10.2 sec
5-day plot - Mean Wave Direction Mean Wave Direction (MWD):SSW ( 198 deg true )
5-day plot - Water Temperature Water Temperature (WTMP): 65.8 °F
Previous observations
TIME
(PDT)
5-day plot - Wind Direction
WDIR
 
5-day plot - Wind Speed
WSPD
kts
5-day plot - Wind Gust
GST
kts
5-day plot - Wave Height
WVHT
ft
5-day plot - Dominant Wave Period
DPD
sec
5-day plot - Average Wave Period
APD
sec
5-day plot - Mean Wave Direction
MWD
 
5-day plot - Atmospheric Pressure
PRES
in
5-day plot - Pressure Tendency
PTDY
in
5-day plot - Air Temperature
ATMP
°F
5-day plot - Water Temperature
WTMP
°F
5-day plot - Dew Point
DEWP
°F
5-day plot - Salinity
SAL
psu
5-day plot - Visibility
VIS
nmi
5-day plot - Tide (above MLLW)
TIDE
ft
2024-06-12 11:56 am--- 3.0 1710.8 SW--- 65.5----
2024-06-12 11:26 am--- 2.6 159.9SSW--- 65.5----
2024-06-12 10:56 am--- 3.0 1810.7SSW--- 65.3----
2024-06-12 10:26 am--- 3.0 1310.1 S--- 65.1----
2024-06-12 09:56 am--- 2.6 179.9SSW--- 64.9----
2024-06-12 09:26 am--- 3.0 1510.2 SW--- 64.9----
2024-06-12 08:56 am--- 2.6 1310.0SSW--- 64.8----
2024-06-12 08:26 am--- 3.0 1810.4SSW--- 64.8----
2024-06-12 07:56 am--- 2.6 159.2SSW--- 64.8----
2024-06-12 07:26 am--- 2.6 189.1SSW--- 64.8----
2024-06-12 06:56 am--- 3.0 179.6SSW--- 64.8----
2024-06-12 06:26 am--- 3.0 179.2SSW--- 64.8----
2024-06-12 05:56 am--- 3.0 178.7SSW--- 64.8----
2024-06-12 05:26 am--- 3.0 148.1SSW--- 64.8----
2024-06-12 04:56 am--- 3.0 137.9SSW--- 64.8----
2024-06-12 04:26 am--- 3.0 147.8SSW--- 64.8----
2024-06-12 03:56 am--- 3.0 138.0SSW--- 64.8----
2024-06-12 03:26 am--- 2.6 138.1SSW--- 64.9----
2024-06-12 02:56 am--- 2.6 188.3SSW--- 64.9----
2024-06-12 02:26 am--- 3.0 139.9 S--- 64.8----
2024-06-12 01:56 am--- 2.6 139.9SSW--- 64.8----
2024-06-12 01:26 am--- 2.6 139.5SSW--- 64.9----
2024-06-12 12:56 am--- 2.6 139.8SSW--- 64.8----
2024-06-12 12:26 am--- 2.6 139.2SSW--- 64.9----
2024-06-11 11:56 pm--- 2.6 139.2SSW--- 64.9----
2024-06-11 11:26 pm--- 2.6 149.1 S--- 64.9----
2024-06-11 10:56 pm--- 2.6 139.2SSW--- 64.9----
2024-06-11 10:26 pm--- 2.6 138.5 S--- 64.9----
2024-06-11 09:56 pm--- 3.0 138.8SSW--- 64.9----
2024-06-11 09:26 pm--- 3.0 139.0SSW--- 65.1----
2024-06-11 08:56 pm--- 2.6 138.3SSW--- 64.9----
2024-06-11 08:26 pm--- 3.0 138.4SSW--- 64.9----
2024-06-11 07:56 pm--- 3.0 148.3SSW--- 64.9----
2024-06-11 07:26 pm--- 2.6 138.0 S--- 64.9----
2024-06-11 06:56 pm--- 3.0 148.0SSW--- 64.9----
2024-06-11 06:26 pm--- 3.0 138.6SSW--- 65.1----
2024-06-11 05:56 pm--- 3.0 138.2SSW--- 65.1----
2024-06-11 05:26 pm--- 3.0 137.4SSW--- 65.1----
2024-06-11 04:56 pm--- 3.3 148.4 S--- 65.1----
2024-06-11 04:26 pm--- 3.0 147.6SSW--- 65.3----
2024-06-11 03:56 pm--- 3.0 147.6SSW--- 65.3----
2024-06-11 03:26 pm--- 3.0 147.7 S--- 65.3----
2024-06-11 02:56 pm--- 3.0 147.6 S--- 65.3----
2024-06-11 02:26 pm--- 3.0 137.4SSW--- 65.3----
2024-06-11 01:56 pm--- 3.0 137.4 S--- 65.3----
2024-06-11 01:26 pm--- 3.3 148.2 S--- 65.5----
2024-06-11 12:56 pm--- 3.0 137.4 SW--- 65.5----
2024-06-11 12:26 pm--- 3.0 138.3SSW--- 65.7----
2024-06-11 11:56 am--- 3.0 138.2SSW--- 65.8----

Detailed Wave Summary
for 46224 as of (12:26 pm PDT)
1926 GMT on 06/12/2024:

These wave data are displayed in rounded times.

     

Click on the graph icon in the table below to see a time series plot of the last five days of that observation.

5-day plot - Significant Wave Height Significant Wave Height (WVHT): 2.6 ft
5-day plot - Swell Height Swell Height (SwH): 2.3 ft
5-day plot - Swell Period Swell Period (SwP): 12.5 sec
5-day plot - Swell Direction Swell Direction (SwD):SSW
5-day plot - Wind Wave Height Wind Wave Height (WWH): 1.3 ft
5-day plot - Wind Wave Period Wind Wave Period (WWP): 9.9 sec
5-day plot - Wind Wave Direction Wind Wave Direction (WWD):WSW
5-day plot - Wave Steepness Wave Steepness (STEEPNESS): SWELL
5-day plot - Average Wave Period Average Wave Period (APD): 10.2 sec
Previous observations
TIME
(PDT)
5-day plot - Wave Height
WVHT
ft
5-day plot - Swell Height
SwH
ft
5-day plot - Swell Period
SwP
sec
5-day plot - Swell Direction
SwD
 
5-day plot - Wind Wave Height
WWH
ft
5-day plot - Wind Wave Period
WWP
sec
5-day plot - Wind Wave Direction
WWD
 
5-day plot - Wave Steepness
STEEPNESS
 
5-day plot - Average Wave Period
APD
sec
2024-06-12 11:56 am 3.0 2.6 16.7 SW 1.3 9.1 W SWELL 10.8
2024-06-12 11:26 am 2.6 2.3 15.4SSW 1.3 9.1 W SWELL 9.9
2024-06-12 10:56 am 3.0 2.6 18.2SSW 1.3 9.1 W SWELL 10.7
2024-06-12 10:26 am 3.0 2.6 13.3 S 1.6 9.9 SW SWELL 10.1
2024-06-12 09:56 am 2.6 2.3 16.7SSW 1.3 9.1 W SWELL 9.9
2024-06-12 09:26 am 3.0 2.6 15.4 SW 1.3 9.1 W SWELL 10.2
2024-06-12 08:56 am 2.6 2.3 13.3SSW 1.3 9.1 W SWELL 10.0
2024-06-12 08:26 am 3.0 2.6 18.2SSW 1.3 9.1 W SWELL 10.4
2024-06-12 07:56 am 2.6 2.3 15.4SSW 1.3 9.9 WSW N/A 9.2
2024-06-12 07:26 am 2.6 2.3 18.2SSW 1.6 8.3 W SWELL 9.1
2024-06-12 06:56 am 3.0 2.6 16.7SSW 1.6 9.9 WSW SWELL 9.6
2024-06-12 06:26 am 3.0 2.3 16.7SSW 1.6 8.3 W SWELL 9.2
2024-06-12 05:56 am 3.0 2.3 16.7SSW 1.6 9.1 W SWELL 8.7
2024-06-12 05:26 am 3.0 2.3 14.3SSW 1.6 9.1 W SWELL 8.1
2024-06-12 04:56 am 3.0 2.3 13.3SSW 2.0 9.9 W SWELL 7.9
2024-06-12 04:26 am 3.0 2.3 14.3SSW 2.0 9.1 W SWELL 7.8
2024-06-12 03:56 am 3.0 2.3 13.3SSW 2.0 9.9 W SWELL 8.0
2024-06-12 03:26 am 2.6 2.3 13.3SSW 1.6 9.1 W SWELL 8.1
2024-06-12 02:56 am 2.6 2.0 18.2SSW 1.6 9.9 W N/A 8.3
2024-06-12 02:26 am 3.0 2.6 13.3 S 1.6 9.1 W SWELL 9.9
2024-06-12 01:56 am 2.6 2.3 13.3SSW 1.3 9.1 W SWELL 9.9
2024-06-12 01:26 am 2.6 2.3 13.3SSW 1.6 9.1 W SWELL 9.5
2024-06-12 12:56 am 2.6 2.3 13.3SSW 1.3 9.9 W SWELL 9.8
2024-06-12 12:26 am 2.6 2.3 13.3SSW 1.6 9.9 WSW N/A 9.2
2024-06-11 11:56 pm 2.6 2.3 13.3SSW 1.3 9.9 SW SWELL 9.2
2024-06-11 11:26 pm 2.6 2.0 14.3 S 1.3 9.9 SW N/A 9.1
2024-06-11 10:56 pm 2.6 2.3 13.3SSW 1.6 9.9 WSW SWELL 9.2
2024-06-11 10:26 pm 2.6 2.0 13.3 S 1.6 9.9 SW SWELL 8.5
2024-06-11 09:56 pm 3.0 2.3 13.3SSW 1.6 9.1 WSW SWELL 8.8
2024-06-11 09:26 pm 3.0 2.3 13.3SSW 1.6 6.2 W SWELL 9.0
2024-06-11 08:56 pm 2.6 2.0 13.3SSW 1.6 9.9 SW SWELL 8.3
2024-06-11 08:26 pm 3.0 2.3 13.3SSW 2.0 5.3 W SWELL 8.4
2024-06-11 07:56 pm 2.6 2.3 14.3SSW 2.0 9.9 WSW SWELL 8.3
2024-06-11 07:26 pm 2.6 2.0 13.3 S 2.0 8.3 W SWELL 8.0
2024-06-11 06:56 pm 2.6 2.0 14.3SSW 2.0 9.9 WSW SWELL 8.0
2024-06-11 06:26 pm 3.0 2.3 13.3SSW 1.6 8.3 W SWELL 8.6
2024-06-11 05:56 pm 3.0 2.3 12.5SSW 2.0 9.1 W SWELL 8.2
2024-06-11 05:26 pm 3.0 2.0 13.3SSW 2.0 8.3 W SWELL 7.4
2024-06-11 04:56 pm 3.3 2.6 14.3 S 2.0 9.9 WSW SWELL 8.4
2024-06-11 04:26 pm 3.0 2.3 14.3SSW 2.0 8.3 W SWELL 7.6
2024-06-11 03:56 pm 3.0 2.3 14.3SSW 2.3 9.1 W SWELL 7.6
2024-06-11 03:26 pm 3.0 2.0 14.3 S 2.3 9.9 W AVERAGE 7.7
2024-06-11 02:56 pm 3.0 2.3 14.3 S 2.0 9.9 WSW SWELL 7.6
2024-06-11 02:26 pm 3.0 2.3 13.3SSW 2.0 9.9 W SWELL 7.4
2024-06-11 01:56 pm 3.0 2.3 13.3 S 2.3 9.1 W SWELL 7.4
2024-06-11 01:26 pm 3.3 2.6 14.3 S 2.3 9.1 W SWELL 8.2
2024-06-11 12:56 pm 3.0 2.0 12.5 SW 2.0 9.1 W SWELL 7.4
2024-06-11 12:26 pm 3.0 2.3 13.3SSW 2.0 9.9 WSW SWELL 8.3
2024-06-11 11:56 am 3.0 2.3 12.5SSW 2.0 9.9 W SWELL 8.2

Plot of wave energy versus frequency (and period)